Overview Statistics Trail Chart Weather Telemetry Raw packets
 

This is the latest recevied weather packets stored in our database for station/object AA6HF. If no packets are shown the sender has not sent any weather packets the latest 10 day(s).

<< 92 93 94 95 96 97 98 >>
Time Temp. Humidity Pressure Rain* Wind** Luminosity Snow
1787996618 30.56° C 38% 1006.4 hPa 0 mm - - -
1787996318 30.56° C 38% 1006.3 hPa 0 mm - - -
1787996018 30.56° C 38% 1006.3 hPa 0 mm - - -
1787995718 31.11° C 37% 1006.2 hPa 0 mm - - -
1787995418 31.11° C 37% 1006.3 hPa 0 mm - - -
1787995118 31.11° C 37% 1006.2 hPa 0 mm - - -
1787994818 31.67° C 36% 1006.1 hPa 0 mm - - -
1787994518 31.67° C 35% 1006.1 hPa 0 mm - - -
1787994218 32.22° C 34% 1006.2 hPa 0 mm - - -
1787993918 32.78° C 33% 1006.2 hPa 0 mm - - -
1787993618 32.22° C 33% 1006.3 hPa 0 mm - - -
1787993318 32.22° C 34% 1006.3 hPa 0 mm - - -
1787993018 31.67° C 34% 1006.3 hPa 0 mm - - -
1787992719 31.67° C 35% 1006.3 hPa 0 mm - - -
1787992418 32.22° C 35% 1006.3 hPa 0 mm - - -
1787992118 32.22° C 34% 1006.3 hPa 0 mm - - -
1787991819 31.67° C 35% 1006.5 hPa 0 mm - - -
1787991519 32.22° C 35% 1006.5 hPa 0 mm - - -
1787991219 32.22° C 35% 1006.6 hPa 0 mm - - -
1787990919 31.67° C 35% 1006.6 hPa 0 mm - - -
1787990619 31.67° C 35% 1006.6 hPa 0 mm - - -
1787990319 31.67° C 35% 1006.6 hPa 0 mm - - -
1787990019 31.67° C 35% 1006.6 hPa 0 mm - - -
1787989719 32.22° C 35% 1006.6 hPa 0 mm - - -
1787989419 32.22° C 35% 1006.6 hPa 0 mm - - -

* Rain latest hour (hover to see other rain measurements)
** Current wind speed in m/s (hover to see current wind gust speed)